EN

Hourly Weather Amadora

Today, 17 January, Sunday

Time Temperature Precipitation Wind Pressure Humidity
00:00 +6°C° 0 mm 1 mps 760 mmHg 76%
01:00 +5°C° 0 mm 2 mps 759 mmHg 76%
02:00 +5°C° 0 mm 2 mps 759 mmHg 76%
03:00 +5°C° 0 mm 2 mps 759 mmHg 76%
04:00 +4°C° 0 mm 2 mps 759 mmHg 77%
05:00 +4°C° 0 mm 2 mps 759 mmHg 78%
06:00 +5°C° 0 mm 2 mps 759 mmHg 75%
07:00 +5°C° 0 mm 2 mps 760 mmHg 73%
08:00 +5°C° 0 mm 2 mps 760 mmHg 71%
09:00 +7°C° 0 mm 2 mps 760 mmHg 63%
10:00 +9°C° 0 mm 2 mps 760 mmHg 56%
11:00 +13°C° 0 mm 2 mps 760 mmHg 48%
12:00 +13°C° 0 mm 2 mps 760 mmHg 47%
13:00 +14°C° 0 mm 2 mps 759 mmHg 46%
14:00 +15°C° 0 mm 2 mps 758 mmHg 45%
15:00 +14°C° 0 mm 2 mps 758 mmHg 52%
16:00 +12°C° 0 mm 2 mps 758 mmHg 60%
17:00 +9°C° 0 mm 2 mps 758 mmHg 67%
18:00 +9°C° 0 mm 2 mps 758 mmHg 68%
19:00 +8°C° 0 mm 2 mps 758 mmHg 69%
20:00 +8°C° 0 mm 2 mps 758 mmHg 69%
21:00 +7°C° 0 mm 2 mps 759 mmHg 70%
22:00 +7°C° 0 mm 2 mps 759 mmHg 70%
23:00 +7°C° 0 mm 2 mps 759 mmHg 71%

Tomorrow, 18 January, Monday

Time Temperature Precipitation Wind Pressure Humidity
00:00 +6°C° 0 mm 2 mps 758 mmHg 71%
01:00 +6°C° 0 mm 2 mps 758 mmHg 72%
02:00 +6°C° 0 mm 2 mps 757 mmHg 73%
03:00 +5°C° 0 mm 2 mps 757 mmHg 73%
04:00 +5°C° 0 mm 2 mps 757 mmHg 74%
05:00 +5°C° 0 mm 2 mps 757 mmHg 74%
06:00 +5°C° 0 mm 2 mps 757 mmHg 72%
07:00 +4°C° 0 mm 3 mps 757 mmHg 71%
08:00 +4°C° 0 mm 3 mps 758 mmHg 70%
09:00 +7°C° 0 mm 3 mps 758 mmHg 63%
10:00 +9°C° 0 mm 2 mps 758 mmHg 57%
11:00 +12°C° 0 mm 2 mps 758 mmHg 50%
12:00 +13°C° 0 mm 2 mps 757 mmHg 49%
13:00 +14°C° 0 mm 1 mps 757 mmHg 48%
14:00 +14°C° 0 mm 1 mps 756 mmHg 47%
15:00 +13°C° 0 mm 1 mps 756 mmHg 53%
16:00 +11°C° 0 mm 1 mps 756 mmHg 59%
17:00 +9°C° 0 mm 0 mps 756 mmHg 66%
18:00 +9°C° 0 mm 1 mps 756 mmHg 68%
19:00 +9°C° 0 mm 1 mps 756 mmHg 69%
20:00 +8°C° 0 mm 1 mps 757 mmHg 71%
21:00 +8°C° 0 mm 1 mps 757 mmHg 74%
22:00 +8°C° 0 mm 1 mps 756 mmHg 77%
23:00 +7°C° 0 mm 1 mps 756 mmHg 80%

Day after tomorrow, 19 January, Tuesday

Time Temperature Precipitation Wind Pressure Humidity
00:00 +6°C° 0 mm 2 mps 756 mmHg 83%
01:00 +6°C° 0 mm 2 mps 756 mmHg 86%
02:00 +6°C° 0 mm 2 mps 755 mmHg 89%
03:00 +6°C° 0 mm 2 mps 755 mmHg 90%
04:00 +5°C° 0 mm 3 mps 755 mmHg 91%
05:00 +5°C° 0 mm 3 mps 755 mmHg 93%
06:00 +7°C° 0 mm 3 mps 755 mmHg 92%
07:00 +7°C° 0 mm 3 mps 755 mmHg 92%
08:00 +7°C° 0 mm 3 mps 755 mmHg 92%
09:00 +8°C° 0 mm 4 mps 754 mmHg 86%
10:00 +10°C° 0 mm 5 mps 754 mmHg 80%
11:00 +12°C° 0 mm 5 mps 754 mmHg 74%
12:00 +13°C° 0 mm 6 mps 753 mmHg 73%
13:00 +13°C° 0 mm 6 mps 753 mmHg 72%
14:00 +12°C° 0 mm 7 mps 752 mmHg 71%
15:00 +12°C° 0 mm 7 mps 751 mmHg 73%
16:00 +11°C° 0 mm 7 mps 751 mmHg 75%
17:00 +11°C° 0 mm 7 mps 751 mmHg 77%
18:00 +11°C° 0 mm 8 mps 750 mmHg 78%
19:00 +11°C° 0 mm 8 mps 750 mmHg 79%
20:00 +11°C° 0 mm 9 mps 749 mmHg 79%
21:00 +11°C° 0.2 mm 9 mps 749 mmHg 80%
22:00 +11°C° 0.2 mm 10 mps 748 mmHg 81%
23:00 +12°C° 0.2 mm 11 mps 747 mmHg 81%

20 January, Wednesday

Time Temperature Precipitation Wind Pressure Humidity
00:00 +12°C° 3.7 mm 11 mps 746 mmHg 85%
01:00 +12°C° 3.7 mm 12 mps 745 mmHg 89%
02:00 +12°C° 3.7 mm 13 mps 744 mmHg 92%
03:00 +12°C° 4.9 mm 12 mps 744 mmHg 91%
04:00 +12°C° 4.9 mm 11 mps 743 mmHg 90%
05:00 +12°C° 4.9 mm 9 mps 743 mmHg 89%
06:00 +12°C° 0.1 mm 9 mps 743 mmHg 86%
07:00 +12°C° 0.1 mm 9 mps 744 mmHg 83%
08:00 +11°C° 0.1 mm 8 mps 744 mmHg 80%
09:00 +12°C° 0.1 mm 8 mps 745 mmHg 78%
10:00 +13°C° 0.1 mm 9 mps 745 mmHg 76%
11:00 +13°C° 0.1 mm 9 mps 745 mmHg 74%
12:00 +13°C° 0.4 mm 9 mps 745 mmHg 75%
13:00 +13°C° 0.4 mm 10 mps 745 mmHg 76%
14:00 +13°C° 0.4 mm 10 mps 745 mmHg 77%
15:00 +13°C° 0.3 mm 9 mps 745 mmHg 79%
16:00 +12°C° 0.3 mm 9 mps 746 mmHg 81%
17:00 +11°C° 0.3 mm 8 mps 746 mmHg 83%
18:00 +11°C° 0.1 mm 8 mps 747 mmHg 84%
19:00 +11°C° 0.1 mm 8 mps 747 mmHg 85%
20:00 +11°C° 0.1 mm 7 mps 748 mmHg 86%
21:00 +11°C° 0.1 mm 7 mps 748 mmHg 87%
22:00 +11°C° 0.1 mm 7 mps 748 mmHg 88%
23:00 +11°C° 0.1 mm 6 mps 748 mmHg 89%

21 January, Thursday

Time Temperature Precipitation Wind Pressure Humidity
00:00 +11°C° 0.1 mm 6 mps 749 mmHg 90%
01:00 +11°C° 0.1 mm 6 mps 749 mmHg 90%
02:00 +11°C° 0.1 mm 6 mps 749 mmHg 91%
03:00 +10°C° 0.1 mm 6 mps 749 mmHg 92%
04:00 +10°C° 0.1 mm 6 mps 749 mmHg 92%
05:00 +10°C° 0.1 mm 6 mps 749 mmHg 93%
06:00 +11°C° 0.1 mm 6 mps 749 mmHg 90%
07:00 +11°C° 0.1 mm 7 mps 749 mmHg 88%
08:00 +11°C° 0.1 mm 7 mps 749 mmHg 86%
09:00 +12°C° 0 mm 8 mps 749 mmHg 83%
10:00 +13°C° 0 mm 9 mps 749 mmHg 80%
11:00 +14°C° 0 mm 10 mps 749 mmHg 77%
12:00 +14°C° 0.7 mm 10 mps 748 mmHg 82%
13:00 +13°C° 0.7 mm 11 mps 747 mmHg 87%
14:00 +13°C° 0.7 mm 11 mps 747 mmHg 92%
15:00 +13°C° 0.5 mm 10 mps 747 mmHg 92%
16:00 +13°C° 0.5 mm 9 mps 747 mmHg 92%
17:00 +13°C° 0.5 mm 8 mps 747 mmHg 92%
18:00 +13°C° 0.1 mm 8 mps 748 mmHg 92%
19:00 +14°C° 0.1 mm 7 mps 748 mmHg 92%
20:00 +12°C° 0.1 mm 7 mps 749 mmHg 91%
21:00 +12°C° 0.1 mm 7 mps 749 mmHg 89%
22:00 +12°C° 0.1 mm 7 mps 750 mmHg 87%
23:00 +11°C° 0.1 mm 7 mps 750 mmHg 85%

22 January, Friday

Time Temperature Precipitation Wind Pressure Humidity
00:00 +11°C° 0 mm 7 mps 750 mmHg 84%
01:00 +11°C° 0 mm 7 mps 751 mmHg 83%
02:00 +11°C° 0 mm 7 mps 751 mmHg 81%
03:00 +11°C° 0 mm 7 mps 751 mmHg 81%
04:00 +11°C° 0 mm 6 mps 751 mmHg 81%
05:00 +10°C° 0 mm 6 mps 751 mmHg 81%
06:00 +11°C° 0 mm 6 mps 752 mmHg 83%
07:00 +11°C° 0 mm 6 mps 752 mmHg 84%
08:00 +11°C° 0 mm 6 mps 753 mmHg 85%
09:00 +13°C° 0 mm 6 mps 753 mmHg 81%
10:00 +14°C° 0 mm 7 mps 753 mmHg 77%
11:00 +15°C° 0 mm 7 mps 753 mmHg 73%
12:00 +15°C° 0.2 mm 7 mps 753 mmHg 74%
13:00 +15°C° 0.2 mm 8 mps 753 mmHg 76%
14:00 +15°C° 0.2 mm 8 mps 753 mmHg 77%
15:00 +14°C° 0.1 mm 7 mps 753 mmHg 79%
16:00 +13°C° 0.1 mm 6 mps 753 mmHg 82%
17:00 +12°C° 0.1 mm 5 mps 753 mmHg 84%
18:00 +11°C° 0 mm 4 mps 754 mmHg 85%
19:00 +11°C° 0 mm 4 mps 754 mmHg 86%
20:00 +10°C° 0 mm 4 mps 755 mmHg 87%
21:00 +10°C° 0 mm 4 mps 755 mmHg 87%
22:00 +10°C° 0 mm 4 mps 755 mmHg 87%
23:00 +10°C° 0 mm 4 mps 755 mmHg 87%
Show more